{"data":{"norad_id":62605,"epoch":"2026-05-24T13:50:52.537344Z","epoch_age_seconds":118552,"freshness":"FRESH","line1":"1 62605U 25008U   26144.57699696  .00011329  00000+0  42044-3 0  9990","line2":"2 62605  43.0038 209.0677 0002446 277.9024  82.1550 15.27591404 77224","mean_motion":15.27591404,"eccentricity":0.0002446,"inclination_deg":43.0038,"raan_deg":209.0677,"arg_perigee_deg":277.9024,"mean_anomaly_deg":82.155,"bstar":0.00042044,"rev_number":7722,"period_min":94.266044979656,"perigee_km":481.3367108069,"apogee_km":484.69318634014,"semimajor_km":6861.1519485735,"source":"CELESTRAK","updated_at":"2026-05-25T13:38:19.737109Z"}}